Location: Unspecified
(0.0000°N, 0.0000°E)
Time: 05:49:00
(UTC+02:00)

Tiros 1 despin weight - Visible Passes

Search period start: 17 October 2017 00:00
Search period end: 27 October 2017 00:00
Orbit: 594 x 644 km, 48.2° (Epoch: 16 October)

Date Brightness Start Highest point End Pass type
(mag) Time Alt. Az. Time Alt. Az. Time Alt. Az.
17 Oct ? 05:56:06 21° NNE 05:57:33 25° NE 06:01:18 10° ESE visible
18 Oct ? 06:13:17 48° NNW 06:14:26 70° NE 06:18:57 10° SE visible
19 Oct ? 06:30:23 36° W 06:31:16 41° SW 06:35:33 10° SSE visible
20 Oct ? 05:10:14 14° ESE 05:10:14 14° ESE 05:11:00 10° ESE visible
20 Oct ? 06:47:21 15° WSW 06:48:09 16° SW 06:50:52 10° SSW visible
21 Oct ? 05:27:07 17° SSE 05:27:07 17° SSE 05:28:08 10° SE visible
22 Oct ? 05:43:51 12° S 05:43:51 12° S 05:44:17 10° S visible
